TimeEST,TemperatureF,Dew PointF,Humidity,Sea Level PressureIn,VisibilityMPH,Wind Direction,Wind SpeedMPH,Gust SpeedMPH,PrecipitationIn,Events,Conditions,WindDirDegrees,DateUTC
12:15 AM,26.6,21.2,80,29.96,10.0,Calm,Calm,-,N/A,,Clear,0,2014-01-17 05:15:00
12:35 AM,26.6,23.0,86,29.96,10.0,Calm,Calm,-,N/A,,Clear,0,2014-01-17 05:35:00
12:55 AM,24.8,21.2,86,29.96,10.0,Calm,Calm,-,N/A,,Clear,0,2014-01-17 05:55:00
1:15 AM,24.8,23.0,93,29.96,10.0,Calm,Calm,-,N/A,,Clear,0,2014-01-17 06:15:00
1:35 AM,23.0,19.4,86,29.96,10.0,Calm,Calm,-,N/A,,Clear,0,2014-01-17 06:35:00
1:55 AM,23.0,21.2,93,29.96,10.0,Calm,Calm,-,N/A,,Clear,0,2014-01-17 06:55:00
2:15 AM,21.2,19.4,93,29.97,10.0,Calm,Calm,-,N/A,,Clear,0,2014-01-17 07:15:00
2:35 AM,23.0,21.2,93,29.98,10.0,Calm,Calm,-,N/A,,Clear,0,2014-01-17 07:35:00
2:55 AM,21.2,19.4,93,29.98,10.0,Calm,Calm,-,N/A,,Clear,0,2014-01-17 07:55:00
3:15 AM,21.2,19.4,93,29.97,10.0,Calm,Calm,-,N/A,,Clear,0,2014-01-17 08:15:00
3:35 AM,21.2,17.6,86,29.96,10.0,Calm,Calm,-,N/A,,Clear,0,2014-01-17 08:35:00
3:55 AM,21.2,19.4,93,29.96,10.0,Calm,Calm,-,N/A,,Clear,0,2014-01-17 08:55:00
4:15 AM,21.2,19.4,93,29.97,10.0,Calm,Calm,-,N/A,,Clear,0,2014-01-17 09:15:00
4:35 AM,21.2,19.4,93,29.98,10.0,Calm,Calm,-,N/A,,Clear,0,2014-01-17 09:35:00
4:55 AM,21.2,19.4,93,29.98,10.0,Calm,Calm,-,N/A,,Clear,0,2014-01-17 09:55:00
5:15 AM,21.2,17.6,86,29.98,10.0,Calm,Calm,-,N/A,,Clear,0,2014-01-17 10:15:00
5:35 AM,21.2,19.4,93,29.98,10.0,Calm,Calm,-,N/A,,Clear,0,2014-01-17 10:35:00
5:55 AM,21.2,19.4,93,29.96,10.0,Calm,Calm,-,N/A,,Clear,0,2014-01-17 10:55:00
6:15 AM,21.2,19.4,93,29.96,10.0,Calm,Calm,-,N/A,,Clear,0,2014-01-17 11:15:00
6:35 AM,19.4,17.6,93,29.97,10.0,Calm,Calm,-,N/A,,Clear,0,2014-01-17 11:35:00
6:55 AM,19.4,17.6,93,29.97,10.0,Calm,Calm,-,N/A,,Clear,0,2014-01-17 11:55:00
7:15 AM,19.4,17.6,93,29.98,10.0,Calm,Calm,-,N/A,,Clear,0,2014-01-17 12:15:00
8:15 AM,23.0,19.4,86,29.98,9.0,Calm,Calm,-,N/A,,Clear,0,2014-01-17 13:15:00
8:35 AM,26.6,24.8,93,29.99,10.0,Calm,Calm,-,N/A,,Clear,0,2014-01-17 13:35:00
8:55 AM,28.4,28.4,100,30.00,10.0,Calm,Calm,-,N/A,,Clear,0,2014-01-17 13:55:00
9:15 AM,33.8,30.2,87,30.00,10.0,Calm,Calm,-,N/A,,Clear,0,2014-01-17 14:15:00
9:35 AM,35.6,32.0,87,30.00,10.0,Calm,Calm,-,N/A,,Clear,0,2014-01-17 14:35:00
9:55 AM,39.2,33.8,81,30.00,10.0,South,3.5,-,N/A,,Clear,190,2014-01-17 14:55:00
10:15 AM,39.2,32.0,75,30.01,10.0,SW,8.1,-,N/A,,Clear,220,2014-01-17 15:15:00
10:35 AM,41.0,30.2,65,30.00,10.0,SW,6.9,-,N/A,,Clear,220,2014-01-17 15:35:00
10:55 AM,42.8,30.2,61,29.98,10.0,SW,5.8,-,N/A,,Clear,220,2014-01-17 15:55:00
11:15 AM,42.8,30.2,61,29.97,10.0,SW,8.1,-,N/A,,Clear,230,2014-01-17 16:15:00
11:35 AM,44.6,30.2,57,29.96,10.0,SW,5.8,-,N/A,,Clear,220,2014-01-17 16:35:00
11:55 AM,44.6,30.2,57,29.94,10.0,SSW,6.9,-,N/A,,Clear,210,2014-01-17 16:55:00
12:15 PM,46.4,28.4,50,29.94,10.0,WSW,6.9,-,N/A,,Clear,240,2014-01-17 17:15:00
12:35 PM,46.4,28.4,50,29.93,10.0,SSW,8.1,-,N/A,,Clear,210,2014-01-17 17:35:00
12:55 PM,46.4,26.6,46,29.92,10.0,WSW,9.2,-,N/A,,Clear,240,2014-01-17 17:55:00
1:15 PM,46.4,26.6,46,29.92,10.0,WSW,9.2,-,N/A,,Clear,240,2014-01-17 18:15:00
1:35 PM,46.4,26.6,46,29.92,10.0,SSW,5.8,-,N/A,,Clear,210,2014-01-17 18:35:00
1:55 PM,48.2,26.6,43,29.91,10.0,SSW,5.8,-,N/A,,Clear,200,2014-01-17 18:55:00
2:15 PM,48.2,24.8,40,29.91,10.0,SSW,9.2,-,N/A,,Clear,200,2014-01-17 19:15:00
2:35 PM,48.2,24.8,40,29.91,10.0,SSW,8.1,-,N/A,,Clear,210,2014-01-17 19:35:00
2:55 PM,48.2,21.2,34,29.91,10.0,WSW,10.4,-,N/A,,Clear,240,2014-01-17 19:55:00
3:15 PM,48.2,21.2,34,29.91,10.0,SW,8.1,-,N/A,,Clear,220,2014-01-17 20:15:00
3:35 PM,46.4,23.0,40,29.91,10.0,SW,6.9,-,N/A,,Clear,220,2014-01-17 20:35:00
3:55 PM,46.4,21.2,37,29.91,10.0,SSW,4.6,-,N/A,,Clear,200,2014-01-17 20:55:00
4:15 PM,46.4,23.0,40,29.91,10.0,SW,3.5,-,N/A,,Clear,220,2014-01-17 21:15:00
4:35 PM,44.6,24.8,46,29.92,10.0,Calm,Calm,-,N/A,,Clear,0,2014-01-17 21:35:00
4:55 PM,42.8,24.8,49,29.92,10.0,Calm,Calm,-,N/A,,Clear,0,2014-01-17 21:55:00
5:15 PM,41.0,26.6,57,29.92,10.0,Calm,Calm,-,N/A,,Clear,0,2014-01-17 22:15:00
5:35 PM,39.2,30.2,70,29.93,10.0,Calm,Calm,-,N/A,,Clear,0,2014-01-17 22:35:00
5:55 PM,39.2,30.2,70,29.93,10.0,Calm,Calm,-,N/A,,Clear,0,2014-01-17 22:55:00
6:15 PM,39.2,30.2,70,29.94,10.0,Calm,Calm,-,N/A,,Clear,0,2014-01-17 23:15:00
6:35 PM,37.4,30.2,75,29.94,10.0,Calm,Calm,-,N/A,,Clear,0,2014-01-17 23:35:00
6:55 PM,35.6,30.2,81,29.94,10.0,Calm,Calm,-,N/A,,Clear,0,2014-01-17 23:55:00
7:15 PM,35.6,28.4,75,29.94,10.0,Calm,Calm,-,N/A,,Clear,0,2014-01-18 00:15:00
7:35 PM,33.8,28.4,81,29.94,10.0,Calm,Calm,-,N/A,,Scattered Clouds,0,2014-01-18 00:35:00
7:55 PM,33.8,28.4,81,29.94,10.0,Calm,Calm,-,N/A,,Mostly Cloudy,0,2014-01-18 00:55:00
8:15 PM,33.8,28.4,81,29.94,10.0,Calm,Calm,-,N/A,,Mostly Cloudy,0,2014-01-18 01:15:00
8:35 PM,33.8,28.4,81,29.94,10.0,Calm,Calm,-,N/A,,Mostly Cloudy,0,2014-01-18 01:35:00
8:55 PM,33.8,28.4,81,29.94,10.0,Calm,Calm,-,N/A,,Mostly Cloudy,0,2014-01-18 01:55:00
9:15 PM,33.8,30.2,87,29.93,10.0,Calm,Calm,-,N/A,,Overcast,0,2014-01-18 02:15:00
9:35 PM,35.6,30.2,81,29.93,10.0,Calm,Calm,-,N/A,,Overcast,0,2014-01-18 02:35:00
9:55 PM,33.8,30.2,87,29.93,10.0,Calm,Calm,-,N/A,,Overcast,0,2014-01-18 02:55:00
10:15 PM,33.8,30.2,87,29.92,10.0,Calm,Calm,-,N/A,,Scattered Clouds,0,2014-01-18 03:15:00
10:35 PM,33.8,28.4,81,29.92,10.0,Calm,Calm,-,N/A,,Partly Cloudy,0,2014-01-18 03:35:00
10:55 PM,33.8,30.2,87,29.92,10.0,Calm,Calm,-,N/A,,Scattered Clouds,0,2014-01-18 03:55:00
11:15 PM,33.8,30.2,87,29.90,10.0,Calm,Calm,-,N/A,,Overcast,0,2014-01-18 04:15:00
11:35 PM,32.0,28.4,87,29.89,10.0,Calm,Calm,-,N/A,,Overcast,0,2014-01-18 04:35:00
11:55 PM,33.8,30.2,87,29.88,10.0,Calm,Calm,-,N/A,,Overcast,0,2014-01-18 04:55:00